DW4252 Weather Reports


Display with metric or nautical units.
time (UTC)temp
F
wind
direction
speed
MPH
gust
MPH
rain 1hr
in
rain 24hr
in
rain mn
in
humidity
%
barometer
mb
20260506084006 52 358 8.0 14.0 0.00 0.00 0.00 65 1013.0
20260506083005 51 357 10.0 19.0 0.00 0.00 0.00 64 1013.0
20260506082006 51 357 10.0 15.0 0.00 0.00 0.00 65 1013.0
20260506081006 51 351 10.0 14.0 0.00 0.00 0.00 66 1012.9
20260506073006 51 4 7.0 10.0 0.00 0.00 0.00 69 1012.7
20260506061006 52 24 4.0 6.0 0.00 0.00 0.00 75 1012.4
20260506051006 47 6 8.0 12.0 0.00 0.00 0.00 81 1012.3
20260506045006 47 9 3.0 5.0 0.00 0.00 0.00 79 1012.2
20260506044006 47 13 3.0 4.0 0.00 0.00 0.00 79 1012.1
20260506042006 48 10 3.0 6.0 0.00 0.00 0.00 79 1012.1
20260506041006 48 11 5.0 7.0 0.00 0.00 0.00 79 1012.0
20260506040005 48 14 4.0 7.0 0.00 0.00 0.00 79 1012.1
20260506035005 48 17 4.0 6.0 0.00 0.00 0.00 79 1012.0
20260506034005 49 13 4.0 6.0 0.00 0.00 0.00 79 1011.9
20260506033005 49 15 4.0 7.0 0.00 0.00 0.00 78 1012.0
20260506032005 49 23 5.0 7.0 0.00 0.00 0.00 78 1012.0
20260506031005 49 23 6.0 8.0 0.00 0.00 0.00 77 1012.0
20260506025005 49 26 6.0 12.0 0.00 0.00 0.00 76 1012.1
20260506024005 49 17 7.0 12.0 0.00 0.00 0.00 76 1011.9
20260506023005 50 13 5.0 7.0 0.00 0.00 0.00 76 1012.2
20260506022005 50 22 5.0 9.0 0.00 0.00 0.00 76 1012.1
20260506021005 50 24 5.0 6.0 0.00 0.00 0.00 76 1012.1
20260506020005 50 25 5.0 10.0 0.00 0.00 0.00 76 1012.3
20260506015005 51 26 5.0 8.0 0.00 0.00 0.00 76 1012.3
20260506014005 51 21 7.0 11.0 0.00 0.00 0.00 76 1012.3
20260506013005 51 9 8.0 12.0 0.00 0.00 0.00 77 1012.2
20260506012005 51 3 8.0 12.0 0.00 0.00 0.00 78 1012.1
20260506010005 51 4 8.0 11.0 0.00 0.00 0.00 78 1012.2
20260506005005 51 8 5.0 10.0 0.00 0.00 0.00 77 1012.1
20260506004005 51 11 6.0 9.0 0.00 0.00 0.00 76 1012.3
20260506003005 52 18 5.0 8.0 0.00 0.00 0.00 76 1012.3
20260506000005 52 19 6.0 11.0 0.00 0.00 0.00 75 1012.5
20260505235005 52 18 5.0 7.0 0.00 0.00 0.00 74 1012.4
20260505234005 52 20 5.0 8.0 0.00 0.00 0.00 74 1012.5
20260505232005 52 34 5.0 8.0 0.00 0.00 0.00 73 1012.4
20260505231005 52 40 5.0 9.0 0.00 0.00 0.00 73 1012.6
20260505230012 52 49 6.0 9.0 0.00 0.00 0.00 70 1012.6
20260505225005 53 47 6.0 11.0 0.00 0.00 0.00 68 1012.5
20260505224005 53 46 5.0 8.0 0.00 0.00 0.00 66 1012.5
20260505223006 53 49 8.0 14.0 0.00 0.00 0.00 66 1012.5
20260505222005 53 47 8.0 13.0 0.00 0.00 0.00 65 1012.5
20260505221004 54 61 5.0 6.0 0.00 0.00 0.00 60 1012.5
20260505214005 54 78 5.0 8.0 0.00 0.00 0.00 57 1012.6
20260505213005 54 78 7.0 11.0 0.00 0.00 0.00 57 1012.4
20260505212005 54 77 8.0 12.0 0.00 0.00 0.00 56 1012.4
20260505211005 55 80 8.0 11.0 0.00 0.00 0.00 57 1012.5
20260505210006 55 77 6.0 11.0 0.00 0.00 0.00 60 1012.4
20260505205005 56 79 5.0 7.0 0.00 0.00 0.00 62 1012.3
20260505204005 56 74 6.0 11.0 0.00 0.00 0.00 61 1012.2
20260505202006 56 56 6.0 11.0 0.00 0.00 0.00 60 1012.0
20260505201005 57 42 5.0 8.0 0.00 0.00 0.00 59 1012.0
20260505200005 57 50 3.0 5.0 0.00 0.00 0.00 59 1011.9
20260505195005 57 47 2.0 4.0 0.00 0.00 0.00 58 1011.8
20260505194005 58 49 3.0 6.0 0.00 0.00 0.00 57 1011.4
20260505193005 58 48 4.0 7.0 0.00 0.00 0.00 56 1011.6
20260505192006 58 38 4.0 6.0 0.00 0.00 0.00 56 1011.3
20260505191006 58 39 3.0 5.0 0.00 0.00 0.00 56 1011.4
20260505190006 58 48 2.0 4.0 0.00 0.00 0.00 55 1011.4
20260505185006 59 46 4.0 5.0 0.00 0.00 0.00 55 1011.4
20260505184005 59 49 5.0 7.0 0.00 0.00 0.00 54 1011.4
20260505183006 59 51 5.0 8.0 0.00 0.00 0.00 53 1011.3
20260505182006 60 42 5.0 8.0 0.00 0.00 0.00 53 1011.3
20260505180007 60 40 5.0 6.0 0.00 0.00 0.00 51 1011.2
20260505175006 60 33 4.0 6.0 0.00 0.00 0.00 50 1011.3
20260505174006 60 44 4.0 6.0 0.00 0.00 0.00 49 1011.4
20260505173006 60 58 5.0 9.0 0.00 0.00 0.00 48 1011.4
20260505172006 60 58 5.0 7.0 0.00 0.00 0.00 47 1011.4
20260505171006 60 58 7.0 11.0 0.00 0.00 0.00 47 1011.5
20260505170006 60 51 8.0 11.0 0.00 0.00 0.00 46 1011.5
20260505165006 60 46 7.0 11.0 0.00 0.00 0.00 46 1011.7
20260505164006 60 46 7.0 10.0 0.00 0.00 0.00 46 1011.5
20260505163008 61 50 7.0 10.0 0.00 0.00 0.00 45 1011.6
20260505162006 61 50 8.0 12.0 0.00 0.00 0.00 45 1011.7
20260505161007 62 49 7.0 11.0 0.00 0.00 0.00 45 1011.6
20260505153006 62 55 9.0 14.0 0.00 0.00 0.00 45 1011.6
20260505152007 62 47 10.0 16.0 0.00 0.00 0.00 45 1011.4
20260505151007 62 51 10.0 16.0 0.00 0.00 0.00 44 1011.5
20260505125006 63 58 11.0 17.0 0.00 0.00 0.00 46 1012.0
20260505124006 63 48 9.0 14.0 0.00 0.00 0.00 48 1011.9
20260505123006 63 44 9.0 15.0 0.00 0.00 0.00 48 1011.9
20260505122006 63 38 11.0 15.0 0.00 0.00 0.00 46 1012.0
20260505121007 64 33 7.0 11.0 0.00 0.00 0.00 48 1012.1
20260505120006 64 38 8.0 11.0 0.00 0.00 0.00 49 1012.0
20260505115006 64 34 7.0 12.0 0.00 0.00 0.00 53 1011.8
20260505114006 63 25 6.0 11.0 0.00 0.00 0.00 53 1011.9
20260505113006 63 22 8.0 12.0 0.00 0.00 0.00 54 1012.0
20260505112006 62 13 8.0 12.0 0.00 0.00 0.00 58 1012.1
20260505111006 62 12 9.0 12.0 0.00 0.00 0.00 58 1012.3
20260505102007 64 8 10.0 13.0 0.00 0.00 0.00 54 1012.3
20260505101006 64 6 8.0 13.0 0.00 0.00 0.00 55 1012.2
20260505100006 61 12 10.0 16.0 0.00 0.00 0.00 63 1012.4
20260505095007 60 15 10.0 14.0 0.00 0.00 0.00 63 1012.3
20260505094006 60 20 10.0 14.0 0.00 0.00 0.00 63 1012.5
20260505093006 61 20 8.0 13.0 0.00 0.00 0.00 64 1012.6
20260505092006 60 18 9.0 13.0 0.00 0.00 0.00 65 1012.6
20260505091008 58 16 8.0 11.0 0.00 0.00 0.00 66 1012.8
20260505090006 57 15 8.0 10.0 0.00 0.00 0.00 69 1012.5
20260505085007 57 18 9.0 14.0 0.00 0.00 0.00 68 1012.6